Retour au catalogue

GPM

ActifMétéoVLEO
NORAD 39574·PAYLOAD·🇯🇵 Japan

Lancé Feb 27, 2014 depuis Tanegashima Space Center

Loading…

Prochains Passages (prochaines 24 heures)

TLE

FraisSource: Space-Track

Époque: Sep 14, 2026, 14:33 UTC

1 39574U 14009C   26257.60668960  .00009283  00000-0  20102-3 0  9995
2 39574  64.9727   8.4928 0011154 260.7386  99.2494 15.44930607711623

Suivez GPM en temps réel avec AllMySat

Download on the App Store